DW5595 Weather Reports


time (UTC)temp
F
wind
direction
speed
knots
gust
knots
rain 1hr
in
rain 24hr
in
rain mn
in
humidity
%
barometer
mb
20260508164526 66 158 0.0 1.7 0.00 0.33 0.00 38 1017.1
20260508163018 65 290 0.0 2.6 0.00 0.33 0.00 42 1017.2
20260508161522 65 63 0.9 5.2 0.00 0.33 0.00 38 1017.4
20260508160010 65 164 0.0 5.2 0.00 0.33 0.00 45 1017.7
20260508154513 64 196 0.0 2.6 0.00 0.33 0.00 51 1017.9
20260508153014 63 209 0.0 1.7 0.00 0.33 0.00 56 1017.9
20260508151515 62 188 0.9 2.6 0.00 0.33 0.00 51 1017.9
20260508150017 62 163 1.7 3.5 0.00 0.33 0.00 56 1018.0
20260508141516 58 24 0.0 1.7 0.00 0.33 0.00 61 1018.3
20260508140013 58 299 0.9 3.5 0.00 0.33 0.00 64 1018.3
20260508134517 55 132 0.0 1.7 0.00 0.33 0.00 67 1018.2
20260508124515 49 170 0.0 0.0 0.00 0.37 0.00 96 1018.0
20260508121520 46 170 0.0 0.0 0.00 0.42 0.00 96 1017.9
20260508113020 43 170 0.0 0.0 0.00 0.49 0.00 95 1017.3
20260508111521 42 263 0.0 0.0 0.00 0.49 0.00 95 1016.8
20260508110020 42 263 0.0 0.0 0.00 0.49 0.00 95 1016.7
20260508104522 42 188 0.0 0.0 0.00 0.50 0.00 95 1016.4
20260508103021 42 125 0.0 0.0 0.00 0.50 0.00 94 1016.1
20260508090021 44 125 0.0 0.9 0.00 0.50 0.00 94 1015.6
20260508084512 44 125 0.0 0.0 0.00 0.51 0.00 94 1015.2
20260508083010 44 125 0.0 0.0 0.00 0.51 0.00 94 1015.2
20260508081507 45 125 0.0 0.0 0.00 0.51 0.00 94 1015.2
20260508074516 45 34 0.0 1.7 0.00 0.51 0.00 94 1014.9
20260508073016 46 15 0.0 3.5 0.00 0.51 0.00 93 1014.9
20260508071525 45 9 0.0 0.0 0.00 0.52 0.00 94 1014.9
20260508064514 46 360 0.0 0.0 0.00 0.52 0.00 94 1014.4
20260508063009 46 360 0.0 0.9 0.00 0.52 0.00 93 1014.4
20260508061522 47 158 0.0 0.0 0.00 0.54 0.00 93 1014.4
20260508060021 47 158 0.0 0.0 0.00 0.54 0.00 93 1014.5
20260508053020 48 158 0.0 0.0 0.00 0.56 0.00 93 1014.4
20260508051525 48 158 0.0 0.0 0.00 0.56 0.00 93 1014.2
20260508050015 48 158 0.0 0.0 0.00 0.57 0.00 93 1014.1
20260508044519 49 158 0.0 0.9 0.00 0.57 0.00 93 1014.1
20260508041520 49 163 0.0 1.7 0.00 0.58 0.00 92 1013.8
20260508040021 50 169 0.0 0.0 0.00 0.58 0.00 90 1014.1
20260508034519 51 169 0.0 0.0 0.00 0.58 0.58 89 1013.9
20260508031517 51 178 0.0 0.0 0.00 0.58 0.58 88 1014.1
20260508030020 53 178 0.0 0.0 0.00 0.60 0.58 84 1013.9
20260508024523 56 283 0.0 1.7 0.00 0.61 0.58 69 1013.5
20260508023024 56 310 0.0 1.7 0.00 0.61 0.58 69 1013.5
20260508021522 57 13 0.9 7.0 0.00 0.62 0.58 69 1013.3
20260508020017 57 321 0.9 4.3 0.00 0.63 0.58 67 1013.0
20260508014515 57 360 0.0 0.0 0.00 0.65 0.58 71 1012.9
20260508013011 59 11 0.0 7.0 0.00 0.67 0.58 64 1012.4
20260508011537 59 312 2.6 7.0 0.00 0.68 0.58 61 1012.2
20260508003024 61 338 2.6 8.7 0.00 0.71 0.58 63 1011.4
20260508000016 63 44 5.2 10.4 0.00 0.79 0.58 62 1011.0
20260507234522 63 352 2.6 7.0 0.00 0.80 0.58 64 1010.9
20260507233028 64 296 3.5 7.8 0.00 0.81 0.58 67 1010.6
20260507231506 63 99 0.0 0.0 0.00 0.81 0.58 89 1010.6
20260507230023 63 13 0.9 1.7 0.00 0.82 0.58 86 1010.1
20260507224524 63 27 0.9 7.0 0.00 0.83 0.58 85 1009.9
20260507223022 64 22 0.9 3.5 0.00 0.83 0.58 84 1009.6
20260507221516 65 138 0.0 2.6 0.00 0.83 0.58 85 1009.3
20260507220021 65 30 0.9 2.6 0.00 0.83 0.58 83 1009.1
20260507214510 65 15 2.6 7.0 0.00 0.83 0.58 83 1008.9
20260507211524 68 84 0.9 8.7 0.00 0.83 0.58 78 1008.1
20260507210024 75 40 4.3 12.2 0.00 0.83 0.58 65 1007.7
20260507203016 72 147 0.0 5.2 0.00 0.83 0.58 80 1007.2
20260507201516 72 144 0.0 5.2 0.00 0.83 0.58 85 1007.3
20260507200018 71 171 0.0 2.6 0.08 0.83 0.58 87 1007.2
20260507194524 69 155 0.0 0.9 0.33 0.83 0.58 90 1007.5
20260507193030 66 141 0.9 2.6 0.33 0.83 0.58 92 1007.8
20260507191526 65 146 1.7 5.2 0.33 0.83 0.58 89 1008.0
20260507190020 69 133 2.6 3.5 0.25 0.75 0.50 85 1008.1
20260507184521 73 185 0.0 4.3 0.00 0.50 0.25 75 1008.3
20260507183032 74 178 0.0 8.7 0.00 0.50 0.25 73 1007.8
20260507181512 74 107 3.5 7.0 0.00 0.50 0.25 73 1008.1
20260507180036 73 133 1.7 7.8 0.00 0.50 0.25 78 1008.1
20260507174531 73 260 0.9 4.3 0.00 0.50 0.25 81 1008.2
20260507173026 73 138 0.9 4.3 0.00 0.50 0.25 77 1008.4
20260507171527 72 131 0.9 5.2 0.00 0.50 0.25 79 1008.6
20260507170022 70 180 1.7 5.2 0.00 0.50 0.25 85 1008.7